OpenBCM V1.08-5-g2f4a (Linux)

Packet Radio Mailbox

IZ3LSV

[San Dona' di P. JN]

 Login: GUEST





  
CX2SA  > KEP      21.12.19 00:32l 86 Lines 3615 Bytes #999 (0) @ ARL
BID : ARLK098
Read: GUEST
Subj: ARLK098 Keplerian data
Path: IZ3LSV<IQ5KG<I0OJJ<GB7CIP<CX2SA
Sent: 191220/2303Z @:CX2SA.SAL.URY.SOAM #:21182 [Salto] FBB7.00e $:ARLK098
From: CX2SA@CX2SA.SAL.URY.SOAM
To  : KEP@ARL


ZCZC SK98
QST de W1AW
Keplerian Bulletin 98  ARLK098
From ARRL Headquarters
Newington, CT  December 20, 2019
To all radio amateurs

SB KEP ARL ARLK098
ARLK098 Keplerian data

Special thanks to AMSAT-NA (AMSAT.ORG) for the following Keplerian
data.

Decode 2-line elsets with the following key:
1 AAAAAU 00  0  0 BBBBB.BBBBBBBB  .CCCCCCCC  00000-0  00000-0 0  DDDZ
2 AAAAA EEE.EEEE FFF.FFFF GGGGGGG HHH.HHHH III.IIII JJ.JJJJJJJJKKKKKZ
KEY: A-CATALOGNUM B-EPOCHTIME C-DECAY D-ELSETNUM E-INCLINATION F-RAAN
G-ECCENTRICITY H-ARGPERIGEE I-MNANOM J-MNMOTION K-ORBITNUM Z-CHECKSUM

0 AO-07
1 7530U 74089B   19354.45767194 -.00000025  00000-0  12440-3 0  9990
2 7530 101.7736 320.4041 0012293 352.0867 118.7130 12.53641294 63674
0 FO-29
1 24278U 96046B   19353.81954383 -.00000037 +00000-0 -42148-5 0  9996
2 24278 098.5636 122.5060 0351147 122.6665 240.8863 13.53094969152454
0 ISS
1 25544U 98067A   19354.71635457  .00000394  00000-0  14907-4 0  9991
2 25544  51.6433 156.5838 0007743  55.8785  40.9266 15.50124209204191
0 SO-50
1 27607U 02058C   19354.09491437 -.00000050  00000-0  13753-4 0  9995
2 27607  64.5537 205.8012 0069188 220.0796 139.5191 14.75596081914245
0 CO-55
1 27844U 03031E   19353.97932101  .00000045  00000-0  39991-4 0  9999
2 27844  98.6835 359.4328 0009274 212.9663 147.0937 14.22211578854484
0 RS-22
1 27939U 03042A   19354.43675368  .00000100  00000-0  26577-4 0  9995
2 27939  98.0655 126.9516 0012637 197.7631 162.3135 14.66825124867627
0 RS-30
1 32953U 08025A   19354.51601168  .00000037  00000-0  19437-3 0  9994
2 32953  82.5050  29.8200 0020370  87.4121 272.9291 12.43093085525278
0 KKS-1
1 33499U 09002H   19354.13411148  .00000075  00000-0  19018-4 0  9999
2 33499  98.3332 198.5980 0008820 347.2636  12.8348 14.75489305586424
0 AO-71
1 37854U 11061E   19353.84979772 +.00000882 +00000-0 +52601-4 0  9996
2 37854 101.7131 346.8721 0159452 238.6969 119.8549 15.06875639444271
0 AO-73
1 39444U 13066AE  19354.50505414  .00000221  00000-0  33374-4 0  9995
2 39444  97.5574 359.7179 0058987 139.9673 220.5912 14.82029914327305
0 UKUBE 1
1 40074U 14037F   19354.43250683  .00000272  00000-0  39788-4 0  9993
2 40074  98.4498 167.0932 0004530 357.9024   2.2170 14.84158223295050
0 XW-2A
1 40903U 15049E   19354.38134641  .00001491  00000-0  36407-4 0  9996
2 40903  97.3150  37.9977 0012848 189.2124 234.7803 15.42435933238712
0 XW-2F
1 40910U 15049M   19354.45915656  .00000815  00000-0  43857-4 0  9991
2 40910  97.4652 355.5234 0013163 267.6835 256.2299 15.17602015235033
0 XW-2B
1 40911U 15049N   19354.45441896  .00000415  00000-0  25064-4 0  9998
2 40911  97.4722 353.9074 0012537 278.5518 247.0532 15.15999089234898
0 IO-86
1 40931U 15052B   19352.99822069  .00000535  00000-0 -14603-4 0  9997
2 40931   5.9937 189.3915 0013188 231.8732 128.1161 14.76621044228394
0 CAS 4B
1 42759U 17034B   19354.34420917  .00000068  00000-0  17684-4 0  9998
2 42759  43.0205 296.5400 0012479 331.2960 166.6765 15.09705310138747
0 CAS 4A
1 42761U 17034D   19354.36521986  .00000154  00000-0  22867-4 0  9996
2 42761  43.0199 295.8416 0012843 331.6990 172.8635 15.09783851138744
0 AO-91
1 43017U 17073E   19354.34050367  .00000491  00000-0  44432-4 0  9998
2 43017  97.7258 268.4922 0256188 277.1700  80.0452 14.78749810112543
0 AO-92
1 43137U 18004AC  19353.85056145 +.00000840 +00000-0 +37867-4 0  9993
2 43137 097.4684 061.0604 0008483 339.9723 020.1180 15.23776949107546

Keplerian bulletins are transmitted twice weekly from W1AW.  The
next scheduled transmission of these data will be Tuesday, December
24, 2019, at 2230z on Baudot and BPSK31.
NNNN


Read previous mail | Read next mail


 30.10.2025 00:38:56lGo back Go up